| time (UTC) | temp F | wind direction | speed MPH | gust MPH | rain 1hr in | rain 24hr in | rain mn in | humidity % | barometer mb |
| 20260502163937 | 61 | 282 | 1.0 | 4.0 | 0.00 | 0.00 | 0.00 | 89 | 1014.6 |
| 20260502163441 | 61 | 269 | 1.0 | 4.0 | 0.00 | 0.00 | 0.00 | 89 | 1014.6 |
| 20260502162936 | 61 | 190 | 0.0 | 4.0 | 0.00 | 0.00 | 0.00 | 89 | 1014.6 |
| 20260502162433 | 61 | 88 | 0.0 | 0.0 | 0.00 | 0.00 | 0.00 | 90 | 1014.5 |
| 20260502161932 | 61 | 88 | 0.0 | 0.0 | 0.00 | 0.00 | 0.00 | 90 | 1014.7 |
| 20260502161439 | 61 | 88 | 0.0 | 2.0 | 0.00 | 0.00 | 0.00 | 90 | 1014.6 |
| 20260502160932 | 60 | 88 | 1.0 | 4.0 | 0.00 | 0.00 | 0.00 | 90 | 1014.6 |
| 20260502160432 | 60 | 153 | 1.0 | 5.0 | 0.00 | 0.00 | 0.00 | 90 | 1014.6 |
| 20260502151933 | 60 | 152 | 1.0 | 3.0 | 0.00 | 0.00 | 0.00 | 92 | 1014.4 |
| 20260502151430 | 59 | 69 | 1.0 | 3.0 | 0.00 | 0.00 | 0.00 | 92 | 1014.4 |
| 20260502150930 | 59 | 69 | 2.0 | 4.0 | 0.00 | 0.00 | 0.00 | 92 | 1014.3 |
| 20260502150432 | 59 | 113 | 2.0 | 4.0 | 0.00 | 0.00 | 0.00 | 92 | 1014.2 |
| 20260502130535 | 58 | 242 | 1.0 | 3.0 | 0.00 | 0.00 | 0.00 | 93 | 1013.6 |
| 20260502130515 | 58 | 265 | 1.0 | 3.0 | 0.00 | 0.00 | 0.00 | 93 | 1013.5 |
| 20260502123421 | 58 | 250 | 1.0 | 3.0 | 0.00 | 0.00 | 0.00 | 93 | 1013.4 |
| 20260502123304 | 58 | 278 | 1.0 | 3.0 | 0.00 | 0.00 | 0.00 | 93 | 1013.4 |
| 20260502122421 | 58 | 288 | 2.0 | 4.0 | 0.00 | 0.00 | 0.00 | 93 | 1013.4 |
| 20260502122313 | 58 | 211 | 2.0 | 4.0 | 0.00 | 0.00 | 0.00 | 93 | 1013.3 |
| 20260502121423 | 58 | 243 | 2.0 | 4.0 | 0.00 | 0.00 | 0.00 | 93 | 1013.3 |
| 20260502120921 | 58 | 310 | 2.0 | 6.0 | 0.00 | 0.00 | 0.00 | 93 | 1013.2 |
| 20260502120415 | 59 | 250 | 2.0 | 6.0 | 0.00 | 0.00 | 0.00 | 93 | 1013.3 |
| 20260502115914 | 58 | 263 | 2.0 | 4.0 | 0.00 | 0.00 | 0.00 | 93 | 1013.3 |
| 20260502115414 | 59 | 278 | 2.0 | 5.0 | 0.00 | 0.00 | 0.00 | 93 | 1013.2 |
| 20260502115243 | 59 | 242 | 2.0 | 5.0 | 0.00 | 0.00 | 0.00 | 93 | 1013.3 |
| 20260502114418 | 59 | 263 | 1.0 | 4.0 | 0.00 | 0.00 | 0.00 | 93 | 1013.3 |
| 20260502113912 | 59 | 243 | 2.0 | 5.0 | 0.00 | 0.00 | 0.00 | 93 | 1013.2 |
| 20260502113410 | 59 | 267 | 2.0 | 5.0 | 0.00 | 0.00 | 0.00 | 93 | 1013.1 |
| 20260502113255 | 59 | 238 | 2.0 | 4.0 | 0.00 | 0.00 | 0.00 | 93 | 1013.1 |
| 20260502112417 | 59 | 218 | 1.0 | 4.0 | 0.00 | 0.00 | 0.00 | 93 | 1013.1 |
| 20260502112225 | 59 | 209 | 1.0 | 4.0 | 0.00 | 0.00 | 0.00 | 93 | 1013.0 |
| 20260502111405 | 59 | 311 | 1.0 | 4.0 | 0.00 | 0.00 | 0.00 | 93 | 1013.0 |
| 20260502111222 | 59 | 248 | 1.0 | 4.0 | 0.00 | 0.00 | 0.00 | 93 | 1013.0 |
| 20260502110402 | 59 | 248 | 2.0 | 4.0 | 0.00 | 0.00 | 0.00 | 93 | 1013.1 |
| 20260502105901 | 59 | 265 | 2.0 | 3.0 | 0.00 | 0.00 | 0.00 | 93 | 1013.0 |
| 20260502105404 | 59 | 198 | 1.0 | 4.0 | 0.00 | 0.00 | 0.00 | 93 | 1013.0 |
| 20260502104903 | 59 | 234 | 1.0 | 4.0 | 0.00 | 0.00 | 0.00 | 93 | 1012.9 |
| 20260502104716 | 59 | 209 | 1.0 | 4.0 | 0.00 | 0.00 | 0.00 | 93 | 1012.9 |
| 20260502103902 | 58 | 290 | 1.0 | 4.0 | 0.00 | 0.00 | 0.00 | 93 | 1012.8 |
| 20260502103402 | 59 | 250 | 1.0 | 3.0 | 0.00 | 0.00 | 0.00 | 93 | 1012.6 |
| 20260502102903 | 59 | 298 | 1.0 | 3.0 | 0.00 | 0.00 | 0.00 | 93 | 1012.7 |
| 20260502102405 | 59 | 248 | 1.0 | 3.0 | 0.00 | 0.00 | 0.00 | 93 | 1012.9 |
| 20260502101901 | 59 | 248 | 1.0 | 3.0 | 0.00 | 0.00 | 0.00 | 93 | 1012.8 |
| 20260502101402 | 59 | 267 | 0.0 | 3.0 | 0.00 | 0.00 | 0.00 | 92 | 1012.8 |
| 20260502101235 | 59 | 267 | 1.0 | 3.0 | 0.00 | 0.00 | 0.00 | 93 | 1012.7 |
| 20260502100402 | 59 | 267 | 1.0 | 3.0 | 0.00 | 0.00 | 0.00 | 92 | 1012.8 |
| 20260502091353 | 59 | 246 | 0.0 | 3.0 | 0.00 | 0.00 | 0.00 | 92 | 1013.0 |
| 20260502090851 | 59 | 246 | 0.0 | 2.0 | 0.00 | 0.00 | 0.00 | 92 | 1013.1 |
| 20260502090349 | 59 | 246 | 1.0 | 2.0 | 0.00 | 0.00 | 0.00 | 92 | 1013.1 |
| 20260502071333 | 58 | 291 | 1.0 | 3.0 | 0.00 | 0.00 | 0.00 | 90 | 1013.9 |
| 20260502071133 | 58 | 291 | 1.0 | 3.0 | 0.00 | 0.00 | 0.00 | 90 | 1013.9 |
| 20260502070331 | 58 | 292 | 1.0 | 3.0 | 0.00 | 0.00 | 0.00 | 90 | 1013.9 |
| 20260502065827 | 58 | 286 | 1.0 | 3.0 | 0.00 | 0.00 | 0.00 | 90 | 1013.9 |
| 20260502065326 | 59 | 286 | 1.0 | 3.0 | 0.00 | 0.00 | 0.00 | 90 | 1013.9 |
| 20260502065152 | 59 | 281 | 1.0 | 3.0 | 0.00 | 0.00 | 0.00 | 90 | 1013.8 |
| 20260502064325 | 59 | 292 | 1.0 | 2.0 | 0.00 | 0.00 | 0.00 | 90 | 1013.8 |
| 20260502063827 | 59 | 288 | 0.0 | 0.0 | 0.00 | 0.00 | 0.00 | 90 | 1013.8 |
| 20260502063325 | 59 | 288 | 0.0 | 0.0 | 0.00 | 0.00 | 0.00 | 90 | 1013.8 |
| 20260502062819 | 59 | 288 | 0.0 | 0.0 | 0.00 | 0.00 | 0.00 | 89 | 1013.7 |
| 20260502062312 | 59 | 288 | 0.0 | 0.0 | 0.00 | 0.00 | 0.00 | 89 | 1013.7 |
| 20260502061807 | 59 | 288 | 0.0 | 2.0 | 0.00 | 0.00 | 0.00 | 89 | 1013.6 |
| 20260502061306 | 59 | 288 | 1.0 | 3.0 | 0.00 | 0.00 | 0.00 | 89 | 1013.5 |
| 20260502060807 | 59 | 288 | 1.0 | 3.0 | 0.00 | 0.00 | 0.00 | 89 | 1013.4 |
| 20260502060741 | 59 | 293 | 1.0 | 3.0 | 0.00 | 0.00 | 0.00 | 89 | 1013.6 |
| 20260502055805 | 59 | 285 | 1.0 | 3.0 | 0.00 | 0.00 | 0.00 | 89 | 1013.4 |
| 20260502055305 | 59 | 229 | 1.0 | 3.0 | 0.00 | 0.00 | 0.00 | 89 | 1013.5 |
| 20260502054804 | 60 | 229 | 1.0 | 3.0 | 0.00 | 0.00 | 0.00 | 89 | 1013.6 |
| 20260502054304 | 60 | 229 | 1.0 | 4.0 | 0.00 | 0.00 | 0.00 | 89 | 1013.6 |
| 20260502053805 | 60 | 229 | 1.0 | 4.0 | 0.00 | 0.00 | 0.00 | 89 | 1013.6 |
| 20260502053302 | 60 | 229 | 1.0 | 4.0 | 0.00 | 0.00 | 0.00 | 88 | 1013.6 |
| 20260502053155 | 60 | 229 | 2.0 | 4.0 | 0.00 | 0.00 | 0.00 | 88 | 1013.7 |
| 20260502052305 | 60 | 234 | 2.0 | 5.0 | 0.00 | 0.00 | 0.00 | 88 | 1013.6 |
| 20260502051804 | 60 | 250 | 2.0 | 7.0 | 0.00 | 0.00 | 0.00 | 88 | 1013.6 |
| 20260502051646 | 60 | 0 | 2.0 | 7.0 | 0.00 | 0.00 | 0.00 | 89 | 1013.6 |
| 20260502050802 | 60 | 229 | 2.0 | 4.0 | 0.00 | 0.00 | 0.00 | 89 | 1013.6 |
| 20260502050302 | 60 | 226 | 2.0 | 7.0 | 0.00 | 0.00 | 0.00 | 89 | 1013.5 |
| 20260502045801 | 60 | 198 | 3.0 | 7.0 | 0.00 | 0.00 | 0.00 | 89 | 1013.4 |
| 20260502045305 | 60 | 174 | 2.0 | 6.0 | 0.00 | 0.00 | 0.00 | 89 | 1013.5 |
| 20260502044758 | 60 | 232 | 2.0 | 5.0 | 0.00 | 0.00 | 0.00 | 88 | 1013.4 |
| 20260502044258 | 60 | 232 | 3.0 | 7.0 | 0.00 | 0.00 | 0.00 | 88 | 1013.4 |
| 20260502044121 | 60 | 257 | 2.0 | 7.0 | 0.00 | 0.00 | 0.00 | 88 | 1013.3 |
| 20260502043258 | 60 | 215 | 2.0 | 8.0 | 0.00 | 0.00 | 0.00 | 88 | 1013.3 |
| 20260502042757 | 60 | 221 | 3.0 | 8.0 | 0.00 | 0.00 | 0.00 | 89 | 1013.2 |
| 20260502042604 | 60 | 208 | 2.0 | 6.0 | 0.00 | 0.00 | 0.00 | 89 | 1013.2 |
| 20260502042142 | 60 | 201 | 3.0 | 8.0 | 0.00 | 0.00 | 0.00 | 89 | 1013.2 |
| 20260502041258 | 60 | 213 | 4.0 | 8.0 | 0.00 | 0.00 | 0.00 | 89 | 1013.0 |
| 20260502040801 | 60 | 190 | 3.0 | 8.0 | 0.00 | 0.00 | 0.00 | 89 | 1013.0 |
| 20260502040647 | 60 | 0 | 3.0 | 6.0 | 0.00 | 0.00 | 0.00 | 89 | 1012.9 |
| 20260502040510 | 60 | 228 | 3.0 | 8.0 | 0.00 | 0.00 | 0.00 | 89 | 1012.9 |
| 20260502035250 | 60 | 0 | 2.0 | 7.0 | 0.00 | 0.00 | 0.00 | 89 | 1012.7 |
| 20260502034751 | 60 | 236 | 2.0 | 7.0 | 0.00 | 0.00 | 0.00 | 89 | 1012.7 |
| 20260502034250 | 60 | 207 | 3.0 | 7.0 | 0.00 | 0.00 | 0.00 | 89 | 1012.5 |
| 20260502033750 | 60 | 213 | 3.0 | 9.0 | 0.00 | 0.00 | 0.00 | 89 | 1012.3 |
| 20260502033248 | 60 | 184 | 3.0 | 9.0 | 0.00 | 0.00 | 0.00 | 89 | 1012.1 |
| 20260502032748 | 60 | 214 | 3.0 | 7.0 | 0.00 | 0.00 | 0.00 | 88 | 1012.1 |
| 20260502032247 | 60 | 226 | 3.0 | 8.0 | 0.00 | 0.00 | 0.00 | 88 | 1012.0 |
| 20260502031750 | 60 | 0 | 3.0 | 8.0 | 0.00 | 0.00 | 0.00 | 88 | 1011.9 |
| 20260502031248 | 61 | 216 | 3.0 | 10.0 | 0.00 | 0.00 | 0.00 | 88 | 1011.9 |
| 20260502030750 | 61 | 200 | 3.0 | 10.0 | 0.00 | 0.00 | 0.00 | 88 | 1011.9 |
| 20260502030250 | 61 | 238 | 3.0 | 8.0 | 0.00 | 0.00 | 0.00 | 88 | 1011.9 |
| 20260502025244 | 61 | 265 | 4.0 | 11.0 | 0.00 | 0.00 | 0.00 | 87 | 1011.8 |
| 20260502024742 | 61 | 265 | 4.0 | 11.0 | 0.00 | 0.00 | 0.00 | 87 | 1011.7 |
| 20260502024242 | 61 | 245 | 4.0 | 10.0 | 0.00 | 0.00 | 0.00 | 87 | 1011.8 |
| 20260502023742 | 61 | 257 | 5.0 | 10.0 | 0.00 | 0.00 | 0.00 | 87 | 1011.8 |
| 20260502023239 | 61 | 238 | 4.0 | 9.0 | 0.00 | 0.00 | 0.00 | 87 | 1011.8 |
| 20260502022740 | 62 | 0 | 4.0 | 9.0 | 0.00 | 0.00 | 0.00 | 86 | 1011.7 |
| 20260502022238 | 62 | 228 | 5.0 | 11.0 | 0.00 | 0.00 | 0.00 | 86 | 1011.7 |
| 20260502021737 | 62 | 0 | 5.0 | 11.0 | 0.00 | 0.00 | 0.00 | 86 | 1011.7 |
| 20260502021237 | 62 | 261 | 5.0 | 12.0 | 0.00 | 0.00 | 0.00 | 86 | 1011.6 |
| 20260502020801 | 62 | 212 | 5.0 | 11.0 | 0.00 | 0.00 | 0.00 | 85 | 1011.6 |
| 20260502020739 | 62 | 0 | 5.0 | 12.0 | 0.00 | 0.00 | 0.00 | 85 | 1011.6 |
| 20260502015743 | 62 | 195 | 5.0 | 10.0 | 0.00 | 0.00 | 0.00 | 85 | 1011.5 |
| 20260502015245 | 63 | 238 | 5.0 | 10.0 | 0.00 | 0.00 | 0.00 | 84 | 1011.4 |
| 20260502014740 | 63 | 0 | 4.0 | 10.0 | 0.00 | 0.00 | 0.00 | 84 | 1011.5 |
| 20260502014238 | 64 | 255 | 4.0 | 11.0 | 0.00 | 0.00 | 0.00 | 83 | 1011.5 |
| 20260502013745 | 64 | 0 | 4.0 | 11.0 | 0.00 | 0.00 | 0.00 | 83 | 1011.4 |
| 20260502013237 | 64 | 261 | 5.0 | 12.0 | 0.00 | 0.00 | 0.00 | 82 | 1011.4 |
| 20260502012739 | 65 | 0 | 4.0 | 11.0 | 0.00 | 0.00 | 0.00 | 81 | 1011.3 |
| 20260502012234 | 65 | 225 | 4.0 | 10.0 | 0.00 | 0.00 | 0.00 | 81 | 1011.4 |
| 20260502011735 | 65 | 0 | 5.0 | 13.0 | 0.00 | 0.00 | 0.00 | 81 | 1011.3 |
| 20260502011234 | 65 | 232 | 5.0 | 13.0 | 0.00 | 0.00 | 0.00 | 79 | 1011.3 |
| 20260502010735 | 66 | 221 | 5.0 | 12.0 | 0.00 | 0.00 | 0.00 | 79 | 1011.2 |
| 20260502010233 | 66 | 213 | 5.0 | 12.0 | 0.00 | 0.00 | 0.00 | 78 | 1011.4 |
| 20260502005734 | 66 | 0 | 5.0 | 11.0 | 0.00 | 0.00 | 0.00 | 79 | 1011.4 |
| 20260502005233 | 66 | 178 | 7.0 | 12.0 | 0.00 | 0.00 | 0.00 | 78 | 1011.3 |
| 20260502004737 | 66 | 288 | 6.0 | 13.0 | 0.00 | 0.00 | 0.00 | 78 | 1011.4 |
| 20260502004234 | 66 | 265 | 5.0 | 13.0 | 0.00 | 0.00 | 0.00 | 78 | 1011.4 |
| 20260502004044 | 66 | 0 | 5.0 | 11.0 | 0.00 | 0.00 | 0.00 | 77 | 1011.4 |
| 20260502003550 | 67 | 213 | 5.0 | 10.0 | 0.00 | 0.00 | 0.00 | 78 | 1011.4 |
| 20260502002730 | 67 | 267 | 5.0 | 11.0 | 0.00 | 0.00 | 0.00 | 78 | 1011.4 |
| 20260502002229 | 67 | 236 | 5.0 | 12.0 | 0.00 | 0.00 | 0.00 | 77 | 1011.4 |
| 20260502002038 | 67 | 0 | 5.0 | 13.0 | 0.00 | 0.00 | 0.00 | 77 | 1011.4 |
| 20260502001232 | 68 | 205 | 5.0 | 13.0 | 0.00 | 0.00 | 0.00 | 77 | 1011.4 |
| 20260502000729 | 68 | 292 | 5.0 | 11.0 | 0.00 | 0.00 | 0.00 | 77 | 1011.4 |
| 20260502000228 | 68 | 0 | 5.0 | 12.0 | 0.00 | 0.00 | 0.00 | 77 | 1011.5 |
| 20260501235729 | 68 | 0 | 5.0 | 13.0 | 0.00 | 0.00 | 0.00 | 76 | 1011.4 |
| 20260501235229 | 68 | 263 | 5.0 | 13.0 | 0.00 | 0.00 | 0.00 | 77 | 1011.4 |
| 20260501234725 | 67 | 0 | 6.0 | 12.0 | 0.00 | 0.00 | 0.00 | 77 | 1011.4 |
| 20260501234225 | 67 | 0 | 6.0 | 12.0 | 0.00 | 0.00 | 0.00 | 77 | 1011.5 |
| 20260501233725 | 67 | 285 | 6.0 | 11.0 | 0.00 | 0.00 | 0.00 | 77 | 1011.6 |
| 20260501233226 | 68 | 201 | 5.0 | 12.0 | 0.00 | 0.00 | 0.00 | 78 | 1011.6 |
| 20260501232725 | 68 | 153 | 6.0 | 12.0 | 0.00 | 0.00 | 0.00 | 78 | 1011.5 |
| 20260501232602 | 68 | 288 | 6.0 | 12.0 | 0.00 | 0.00 | 0.00 | 78 | 1011.6 |
| 20260501231721 | 68 | 290 | 6.0 | 13.0 | 0.00 | 0.00 | 0.00 | 78 | 1011.6 |
| 20260501231221 | 68 | 236 | 6.0 | 13.0 | 0.00 | 0.00 | 0.00 | 77 | 1011.6 |
| 20260501230730 | 68 | 255 | 6.0 | 13.0 | 0.00 | 0.00 | 0.00 | 77 | 1011.6 |
| 20260501230222 | 69 | 256 | 5.0 | 13.0 | 0.00 | 0.00 | 0.00 | 76 | 1011.6 |
| 20260501225726 | 68 | 257 | 5.0 | 12.0 | 0.00 | 0.00 | 0.00 | 76 | 1011.7 |
| 20260501225220 | 69 | 209 | 5.0 | 12.0 | 0.00 | 0.00 | 0.00 | 75 | 1011.6 |
| 20260501224719 | 69 | 248 | 6.0 | 13.0 | 0.00 | 0.00 | 0.00 | 76 | 1011.7 |
| 20260501224222 | 68 | 232 | 6.0 | 13.0 | 0.00 | 0.00 | 0.00 | 75 | 1011.8 |
| 20260501223713 | 69 | 259 | 5.0 | 10.0 | 0.00 | 0.00 | 0.00 | 75 | 1011.9 |
| 20260501223204 | 69 | 221 | 5.0 | 11.0 | 0.00 | 0.00 | 0.00 | 74 | 1011.9 |
| 20260501222715 | 69 | 217 | 5.0 | 11.0 | 0.00 | 0.00 | 0.00 | 74 | 1012.0 |
| 20260501222205 | 68 | 201 | 6.0 | 15.0 | 0.00 | 0.00 | 0.00 | 75 | 1012.2 |
| 20260501221712 | 69 | 265 | 5.0 | 15.0 | 0.00 | 0.00 | 0.00 | 73 | 1012.3 |
| 20260501221205 | 69 | 0 | 5.0 | 12.0 | 0.00 | 0.00 | 0.00 | 74 | 1012.4 |
| 20260501220710 | 69 | 190 | 5.0 | 11.0 | 0.00 | 0.00 | 0.00 | 74 | 1012.4 |
| 20260501220206 | 69 | 204 | 5.0 | 12.0 | 0.00 | 0.00 | 0.00 | 72 | 1012.6 |
| 20260501215939 | 69 | 0 | 5.0 | 12.0 | 0.00 | 0.00 | 0.00 | 73 | 1012.6 |
| 20260501215713 | 69 | 0 | 5.0 | 12.0 | 0.00 | 0.00 | 0.00 | 73 | 1012.6 |
| 20260501215202 | 69 | 199 | 5.0 | 10.0 | 0.00 | 0.00 | 0.00 | 72 | 1012.6 |
| 20260501214715 | 69 | 206 | 4.0 | 11.0 | 0.00 | 0.00 | 0.00 | 73 | 1012.6 |
| 20260501214203 | 69 | 245 | 5.0 | 11.0 | 0.00 | 0.00 | 0.00 | 73 | 1012.7 |
| 20260501214002 | 69 | 0 | 5.0 | 10.0 | 0.00 | 0.00 | 0.00 | 72 | 1012.8 |
| 20260501213540 | 70 | 0 | 4.0 | 10.0 | 0.00 | 0.00 | 0.00 | 72 | 1012.9 |
| 20260501212701 | 69 | 0 | 5.0 | 10.0 | 0.00 | 0.00 | 0.00 | 73 | 1012.9 |
| 20260501212155 | 69 | 270 | 5.0 | 10.0 | 0.00 | 0.00 | 0.00 | 72 | 1013.0 |
| 20260501211649 | 70 | 203 | 5.0 | 10.0 | 0.00 | 0.00 | 0.00 | 72 | 1013.0 |
| 20260501211511 | 70 | 267 | 5.0 | 13.0 | 0.00 | 0.00 | 0.00 | 71 | 1013.1 |
| 20260501210642 | 70 | 275 | 5.0 | 13.0 | 0.00 | 0.00 | 0.00 | 72 | 1013.1 |
| 20260501210605 | 70 | 0 | 5.0 | 10.0 | 0.00 | 0.00 | 0.00 | 72 | 1013.1 |
| 20260501205826 | 70 | 0 | 5.0 | 11.0 | 0.00 | 0.00 | 0.00 | 72 | 1013.2 |
| 20260501205753 | 70 | 0 | 5.0 | 11.0 | 0.00 | 0.00 | 0.00 | 72 | 1013.2 |
| 20260501204935 | 70 | 200 | 5.0 | 14.0 | 0.00 | 0.00 | 0.00 | 73 | 1013.2 |
| 20260501204144 | 69 | 240 | 5.0 | 14.0 | 0.00 | 0.00 | 0.00 | 73 | 1013.2 |
| 20260501203642 | 69 | 270 | 5.0 | 11.0 | 0.00 | 0.00 | 0.00 | 73 | 1013.3 |
| 20260501203508 | 70 | 209 | 5.0 | 10.0 | 0.00 | 0.00 | 0.00 | 72 | 1013.3 |
| 20260501202646 | 70 | 0 | 5.0 | 10.0 | 0.00 | 0.00 | 0.00 | 72 | 1013.3 |
| 20260501202141 | 70 | 0 | 5.0 | 13.0 | 0.00 | 0.00 | 0.00 | 72 | 1013.4 |
| 20260501201645 | 69 | 277 | 5.0 | 13.0 | 0.00 | 0.00 | 0.00 | 73 | 1013.4 |
| 20260501201146 | 69 | 233 | 5.0 | 12.0 | 0.00 | 0.00 | 0.00 | 73 | 1013.3 |
| 20260501200642 | 69 | 280 | 5.0 | 12.0 | 0.00 | 0.00 | 0.00 | 73 | 1013.5 |
| 20260501200133 | 69 | 173 | 5.0 | 13.0 | 0.00 | 0.00 | 0.00 | 73 | 1013.5 |
| 20260501195952 | 69 | 195 | 5.0 | 13.0 | 0.00 | 0.00 | 0.00 | 73 | 1013.5 |
| 20260501195135 | 70 | 212 | 5.0 | 10.0 | 0.00 | 0.00 | 0.00 | 72 | 1013.6 |
| 20260501194632 | 70 | 248 | 4.0 | 10.0 | 0.00 | 0.00 | 0.00 | 73 | 1013.6 |
| 20260501194132 | 69 | 249 | 5.0 | 11.0 | 0.00 | 0.00 | 0.00 | 73 | 1013.6 |
| 20260501193633 | 69 | 0 | 5.0 | 12.0 | 0.00 | 0.00 | 0.00 | 73 | 1013.6 |
| 20260501193134 | 69 | 0 | 5.0 | 12.0 | 0.00 | 0.00 | 0.00 | 72 | 1013.6 |
| 20260501192634 | 69 | 178 | 4.0 | 11.0 | 0.00 | 0.00 | 0.00 | 73 | 1013.5 |
| 20260501192133 | 69 | 0 | 4.0 | 9.0 | 0.00 | 0.00 | 0.00 | 73 | 1013.6 |
| 20260501191929 | 69 | 227 | 4.0 | 8.0 | 0.00 | 0.00 | 0.00 | 73 | 1013.6 |
| 20260501191448 | 70 | 0 | 4.0 | 10.0 | 0.00 | 0.00 | 0.00 | 72 | 1013.7 |
| 20260501190640 | 70 | 211 | 4.0 | 10.0 | 0.00 | 0.00 | 0.00 | 72 | 1013.7 |
| 20260501190134 | 70 | 289 | 4.0 | 9.0 | 0.00 | 0.00 | 0.00 | 73 | 1013.8 |
| 20260501185642 | 70 | 206 | 4.0 | 10.0 | 0.00 | 0.00 | 0.00 | 73 | 1014.0 |
| 20260501185134 | 69 | 231 | 4.0 | 10.0 | 0.00 | 0.00 | 0.00 | 73 | 1014.0 |
| 20260501184641 | 69 | 180 | 4.0 | 8.0 | 0.00 | 0.00 | 0.00 | 74 | 1014.1 |
| 20260501184132 | 68 | 263 | 4.0 | 8.0 | 0.00 | 0.00 | 0.00 | 74 | 1014.1 |
| 20260501183639 | 69 | 191 | 4.0 | 8.0 | 0.00 | 0.00 | 0.00 | 73 | 1014.3 |
| 20260501183137 | 69 | 171 | 3.0 | 8.0 | 0.00 | 0.00 | 0.00 | 73 | 1014.3 |
| 20260501182814 | 70 | 259 | 2.0 | 7.0 | 0.00 | 0.00 | 0.00 | 72 | 1014.4 |
| 20260501182742 | 69 | 254 | 2.0 | 7.0 | 0.00 | 0.00 | 0.00 | 73 | 1014.3 |
| 20260501181643 | 69 | 38 | 2.0 | 5.0 | 0.00 | 0.00 | 0.00 | 70 | 1014.5 |
| 20260501181448 | 69 | 119 | 2.0 | 5.0 | 0.00 | 0.00 | 0.00 | 71 | 1014.4 |
| 20260501180637 | 69 | 174 | 1.0 | 6.0 | 0.00 | 0.00 | 0.00 | 72 | 1014.4 |
| 20260501180131 | 68 | 193 | 1.0 | 6.0 | 0.00 | 0.00 | 0.00 | 73 | 1014.4 |
| 20260501175634 | 68 | 344 | 2.0 | 6.0 | 0.00 | 0.00 | 0.00 | 72 | 1014.4 |
| 20260501175307 | 67 | 116 | 2.0 | 7.0 | 0.00 | 0.00 | 0.00 | 74 | 1014.5 |
| 20260501175231 | 68 | 81 | 2.0 | 6.0 | 0.00 | 0.00 | 0.00 | 73 | 1014.4 |